Weather in Lahidne

Ukraine / Zaporizhia Region     47°02′56″N   35°42′43″E
temp.,
°C
wind,
m/s
gust,
m/s
humid.,
%
clouds,
%
prec.,
mm/h
press.,
hPa
HPBL,
m
17 may, mon
mon1700:00+19ene487863 0.0 1001155
03:00+17sse228897 2.8 100246
06:00+16ese499652 0.1 1001268
09:00+20s688799 0.1 1002576
12:00+23ssw786690 0.0 10041066
15:00+24s776191 0.0 10041275
18:00+22sse666799 0.1 10061002
21:00+17s48826 0.4 1007261
18 may, tue
tue1800:00+14ssw498199 0.0 1008249
03:00+13s229382 0.0 100825
06:00+15s238587 0.0 1008140
09:00+18sse567237 0.2 1008928
12:00+21s675553 0.6 10071659
15:00+20ssw81062100 0.8 10071343
18:00+16s598351 0.3 1007517
21:00+15sse598847 0.3 1007365
19 may, wed
wed1900:00+14ssw5109074 0.0 1007380
03:00+12s41095100 0.0 1007250
06:00+12sse34923 0.0 1007109
09:00+17ssw68641 1.0 10071051
12:00+17ssw101065100 0.6 10071413
15:00+14ssw7118982 1.2 1008792
18:00+16wsw8127760 0.7 1008934
21:00+13wsw6138434 0.8 1011648
20 may, thu
thu2000:00+12sw513922 0.0 1012366
03:00+11sw512950 0.0 1013280
06:00+11sw38932 0.0 1014219
09:00+18sw466521 0.0 1015687
12:00+22ssw554796 0.0 10151523
15:00+23s54434 0.0 10141495
18:00+20se55515 0.0 1014744
21:00+14ese497358 0.0 1015146
21 may, fri
fri2100:00+14e513725 0.0 1014243
03:00+14e512855 0.0 1014227
06:00+15e61483100 0.0 1014362
09:00+21ese913615 0.0 1013667
12:00+25ese911465 0.0 1013877
15:00+26ese810440 0.0 1012995
18:00+24ese712594 0.0 1012852
21:00+20ese715733 0.0 1012511